Terminal Aerodrome Forecast
Issued by NWS

Home | Current Version | Previous Version | Graphics & Text | Print | Product List | Glossary On
Versions: 1 2 3 4 5 6 7 8 9 10 11 12 13 14 15 16 17 18
000
FTUS42 KMHX 202300
TAFPGV
TAF
KPGV 202335Z 2100/2124 00000KT P6SM SCT040 BKN130
     FM210700 00000KT 4SM BR SCT010 SCT120
     FM211200 09004KT P6SM SCT020
     FM211700 11006KT P6SM VCTS SCT030CB BKN100
      AMD LTD TO CLD VIS AND WIND=

USA.gov is the U.S. government's official web portal to all federal, state and local government web resources and services.